TimeEDT,TemperatureF,Dew PointF,Humidity,Sea Level PressureIn,VisibilityMPH,Wind Direction,Wind SpeedMPH,Gust SpeedMPH,PrecipitationIn,Events,Conditions,WindDirDegrees,DateUTC
12:53 AM,53.1,48.9,86,30.07,10.0,NNW,4.6,-,N/A,,Partly Cloudy,340,2013-09-15 04:53:00
1:53 AM,50.0,48.0,93,30.09,10.0,Calm,Calm,-,N/A,,Clear,0,2013-09-15 05:53:00
2:53 AM,48.0,45.0,89,30.08,10.0,NNW,4.6,-,N/A,,Clear,330,2013-09-15 06:53:00
3:53 AM,50.0,48.0,93,30.09,10.0,NNW,3.5,-,N/A,,Clear,330,2013-09-15 07:53:00
4:53 AM,48.0,45.0,89,30.10,10.0,Calm,Calm,-,N/A,,Clear,0,2013-09-15 08:53:00
5:53 AM,46.0,43.0,89,30.12,10.0,Calm,Calm,-,N/A,,Clear,0,2013-09-15 09:53:00
6:53 AM,46.9,44.1,90,30.14,10.0,NW,4.6,-,N/A,,Clear,320,2013-09-15 10:53:00
7:53 AM,59.0,54.0,83,30.15,10.0,NW,4.6,-,N/A,,Clear,310,2013-09-15 11:53:00
8:53 AM,63.0,53.1,70,30.17,10.0,NW,3.5,-,N/A,,Clear,320,2013-09-15 12:53:00
9:53 AM,64.9,52.0,63,30.17,10.0,Variable,5.8,-,N/A,,Clear,0,2013-09-15 13:53:00
10:53 AM,64.0,46.9,54,30.17,10.0,Variable,3.5,-,N/A,,Partly Cloudy,0,2013-09-15 14:53:00
11:53 AM,66.0,48.0,52,30.17,10.0,Variable,5.8,-,N/A,,Mostly Cloudy,0,2013-09-15 15:53:00
12:53 PM,68.0,50.0,52,30.16,10.0,SW,10.4,16.1,N/A,,Mostly Cloudy,220,2013-09-15 16:53:00
1:53 PM,68.0,48.9,50,30.14,10.0,SSW,13.8,19.6,N/A,,Clear,210,2013-09-15 17:53:00
2:53 PM,66.9,48.9,52,30.12,10.0,SW,11.5,-,N/A,,Clear,220,2013-09-15 18:53:00
3:53 PM,66.0,48.9,54,30.12,10.0,SW,15.0,20.7,N/A,,Clear,230,2013-09-15 19:53:00
4:53 PM,64.0,46.9,54,30.11,10.0,WSW,6.9,-,N/A,,Clear,240,2013-09-15 20:53:00
5:53 PM,62.1,50.0,65,30.11,10.0,SW,6.9,-,N/A,,Clear,230,2013-09-15 21:53:00
6:53 PM,60.1,51.1,72,30.10,10.0,WSW,4.6,-,N/A,,Clear,250,2013-09-15 22:53:00
7:53 PM,57.9,50.0,75,30.11,10.0,WSW,3.5,-,N/A,,Clear,240,2013-09-15 23:53:00
8:53 PM,55.9,50.0,80,30.10,10.0,SW,3.5,-,N/A,,Clear,230,2013-09-16 00:53:00
9:53 PM,48.9,45.0,86,30.10,10.0,West,4.6,-,N/A,,Clear,260,2013-09-16 01:53:00
10:53 PM,57.0,52.0,83,30.10,10.0,WSW,5.8,-,N/A,,Clear,240,2013-09-16 02:53:00
11:01 PM,57.2,51.8,82,30.10,2.5,WSW,5.8,-,N/A,,Haze,240,2013-09-16 03:01:00
11:10 PM,57.2,51.8,82,30.10,10.0,WSW,4.6,-,N/A,,Clear,250,2013-09-16 03:10:00
11:53 PM,55.9,52.0,87,30.09,10.0,WSW,4.6,-,N/A,,Clear,250,2013-09-16 03:53:00